QPF
0.00 0.00 0.00 0.00 0.00 0.00 0.00 0.00 0.00 0.00 0.00 0.00 0.00 0.00 0.00 0.00 0.00 0.01 0.03 0.04 0.01 0.00 0.00 0.00 0.00 0.00 0.00 0.00 0.00 0.00 0.00 0.00 0.00 0.00 0.00 0.00 0.00 0.00 0.00 0.00 0.00 0.00 0.00
0.00 0.00 0.00 0.00 0.00 0.00 0.00 0.00 0.00 0.00 0.00 0.00 0.00 0.00 0.00 0.00 0.00 0.00 0.01 0.03 0.01 0.00 0.00 0.00 0.00 0.00 0.00 0.00 0.00 0.00 0.00 0.00 0.00 0.00 0.00 0.00 0.00 0.00 0.00 0.00 0.00 0.00 0.00
0.00 0.00 0.00 0.00 0.00 0.00 0.00 0.00 0.00 0.00 0.00 0.00 0.00 0.00 0.00 0.00 0.00 0.00 0.00 0.01 0.01 0.00 0.00 0.00 0.00 0.00 0.00 0.00 0.00 0.00 0.00 0.00 0.00 0.00 0.00 0.00 0.00 0.00 0.00 0.00 0.00 0.00 0.00
0.00 0.00 0.00 0.00 0.00 0.00 0.00 0.00 0.00 0.00 0.00 0.00 0.00 0.00 0.00 0.00 0.00 0.00 0.00 0.00 0.01 0.01 0.01 0.00 0.00 0.00 0.00 0.00 0.00 0.00 0.00 0.00 0.00 0.00 0.00 0.00 0.00 0.00 0.00 0.00 0.00 0.00 0.00
0.00 0.00 0.00 0.00 0.00 0.00 0.00 0.00 0.00 0.00 0.00 0.00 0.00 0.00 0.00 0.00 0.00 0.00 0.00 0.00 0.00 0.02 0.01 0.00 0.00 0.00 0.00 0.00 0.00 0.00 0.00 0.00 0.00 0.00 0.00 0.00 0.00 0.00 0.00 0.00 0.00 0.00 0.00
0.00 0.00 0.00 0.00 0.00 0.00 0.00 0.00 0.00 0.00 0.00 0.00 0.00 0.00 0.00 0.00 0.00 0.00 0.00 0.00 0.01 0.02 0.01 0.00 0.00 0.00 0.00 0.00 0.00 0.00 0.00 0.00 0.00 0.00 0.00 0.00 0.00 0.00 0.00 0.00 0.00 0.00 0.00
0.00 0.00 0.00 0.00 0.00 0.00 0.00 0.00 0.00 0.00 0.00 0.00 0.00 0.00 0.00 0.00 0.00 0.00 0.00 0.00 0.01 0.01 0.01 0.00 0.00 0.00 0.00 0.00 0.00 0.00 0.00 0.00 0.00 0.00 0.00 0.00 0.00 0.00 0.00 0.00 0.00 0.00 0.00
0.00 0.00 0.00 0.00 0.00 0.00 0.00 0.00 0.00 0.00 0.00 0.00 0.00 0.00 0.00 0.00 0.00 0.00 0.00 0.00 0.01 0.02 0.01 0.00 0.00 0.00 0.00 0.00 0.00 0.00 0.00 0.00 0.00 0.00 0.00 0.00 0.00 0.00 0.00 0.00 0.00 0.00 0.00
0.00 0.00 0.00 0.00 0.00 0.00 0.00 0.00 0.00 0.00 0.00 0.00 0.00 0.00 0.00 0.00 0.00 0.00 0.00 0.00 0.00 0.01 0.01 0.00 0.00 0.00 0.00 0.00 0.00 0.00 0.00 0.00 0.00 0.00 0.00 0.00 0.00 0.00 0.00 0.00 0.00 0.00 0.00
0.00 0.00 0.00 0.00 0.00 0.00 0.00 0.00 0.00 0.00 0.00 0.00 0.00 0.00 0.00 0.00 0.00 0.00 0.00 0.00 0.00 0.01 0.01 0.01 0.00 0.00 0.00 0.00 0.00 0.00 0.00 0.00 0.00 0.00 0.00 0.00 0.00 0.00 0.00 0.00 0.00 0.00 0.00
0.00 0.00 0.00 0.00 0.00 0.00 0.00 0.00 0.00 0.00 0.00 0.00 0.00 0.00 0.00 0.00 0.00 0.00 0.00 0.00 0.00 0.00 0.01 0.01 0.00 0.00 0.00 0.00 0.00 0.00 0.00 0.00 0.00 0.00 0.00 0.00 0.00 0.00 0.00 0.00 0.00 0.00 0.00
0.00 0.00 0.00 0.00 0.00 0.00 0.00 0.00 0.00 0.00 0.00 0.00 0.00 0.00 0.00 0.00 0.00 0.00 0.00 0.00 0.00 0.00 0.01 0.01 0.00 0.00 0.00 0.00 0.00 0.00 0.00 0.00 0.00 0.00 0.00 0.00 0.00 0.00 0.00 0.00 0.00 0.00 0.00
0.00 0.00 0.00 0.00 0.00 0.00 0.00 0.00 0.00 0.00 0.00 0.00 0.00 0.00 0.00 0.00 0.00 0.00 0.00 0.00 0.00 0.00 0.00 0.01 0.00 0.00 0.00 0.00 0.00 0.00 0.00 0.00 0.00 0.00 0.00 0.00 0.00 0.00 0.00 0.00 0.00 0.00 0.00
0.00 0.00 0.00 0.00 0.00 0.00 0.00 0.00 0.00 0.00 0.00 0.00 0.00 0.00 0.00 0.00 0.00 0.00 0.00 0.00 0.00 0.00 0.00 0.01 0.01 0.00 0.00 0.00 0.00 0.00 0.00 0.00 0.00 0.00 0.00 0.00 0.00 0.00 0.00 0.00 0.00 0.00 0.00
0.00 0.00 0.00 0.00 0.00 0.00 0.00 0.00 0.00 0.00 0.00 0.00 0.00 0.00 0.00 0.00 0.00 0.00 0.00 0.00 0.00 0.00 0.00 0.01 0.02 0.00 0.00 0.00 0.00 0.00 0.00 0.00 0.00 0.00 0.00 0.00 0.00 0.00 0.00 0.00 0.00 0.00 0.00
0.00 0.00 0.00 0.00 0.00 0.00 0.00 0.00 0.00 0.00 0.00 0.00 0.00 0.00 0.00 0.00 0.00 0.01 0.00 0.00 0.00 0.00 0.00 0.01 0.01 0.00 0.00 0.00 0.00 0.00 0.00 0.00 0.00 0.00 0.00 0.00 0.00 0.00 0.00 0.00 0.00 0.00 0.00
0.00 0.00 0.00 0.00 0.00 0.00 0.00 0.00 0.00 0.00 0.00 0.00 0.00 0.00 0.00 0.00 0.00 0.01 0.00 0.00 0.00 0.00 0.00 0.00 0.01 0.01 0.00 0.00 0.00 0.00 0.00 0.00 0.00 0.00 0.00 0.00 0.00 0.00 0.00 0.00 0.00 0.00 0.00
0.00 0.00 0.00 0.00 0.00 0.00 0.00 0.00 0.00 0.00 0.00 0.00 0.00 0.00 0.00 0.00 0.01 0.01 0.01 0.00 0.00 0.00 0.00 0.00 0.00 0.02 0.01 0.00 0.00 0.00 0.00 0.00 0.00 0.00 0.00 0.00 0.00 0.00 0.00 0.00 0.00 0.00 0.00
0.00 0.00 0.00 0.00 0.00 0.00 0.00 0.00 0.00 0.00 0.00 0.00 0.00 0.00 0.00 0.00 0.01 0.01 0.01 0.00 0.00 0.00 0.00 0.00 0.00 0.00 0.01 0.00 0.00 0.00 0.00 0.00 0.00 0.00 0.00 0.00 0.00 0.00 0.00 0.00 0.00 0.00 0.00
0.00 0.00 0.00 0.00 0.00 0.00 0.00 0.00 0.00 0.00 0.00 0.00 0.01 0.01 0.01 0.00 0.00 0.01 0.01 0.00 0.00 0.00 0.00 0.00 0.00 0.00 0.00 0.00 0.00 0.00 0.00 0.00 0.00 0.00 0.00 0.00 0.00 0.00 0.00 0.00 0.00 0.00 0.00
0.00 0.00 0.00 0.00 0.00 0.00 0.00 0.00 0.00 0.00 0.00 0.01 0.01 0.02 0.01 0.00 0.00 0.01 0.01 0.00 0.00 0.00 0.00 0.00 0.00 0.00 0.00 0.00 0.00 0.00 0.00 0.00 0.00 0.00 0.00 0.00 0.00 0.00 0.00 0.00 0.00 0.00 0.00
0.00 0.00 0.00 0.00 0.00 0.00 0.00 0.00 0.01 0.01 0.02 0.02 0.03 0.02 0.01 0.00 0.00 0.00 0.00 0.00 0.00 0.00 0.00 0.00 0.00 0.00 0.00 0.00 0.00 0.00 0.00 0.00 0.00 0.00 0.00 0.00 0.00 0.00 0.00 0.00 0.00 0.00 0.00
0.00 0.00 0.00 0.00 0.00 0.00 0.00 0.00 0.01 0.02 0.03 0.03 0.02 0.01 0.00 0.00 0.00 0.00 0.00 0.00 0.00 0.00 0.00 0.00 0.00 0.00 0.00 0.00 0.00 0.00 0.00 0.00 0.00 0.00 0.00 0.00 0.00 0.00 0.00 0.00 0.00 0.00 0.00
0.00 0.00 0.00 0.00 0.00 0.00 0.00 0.00 0.00 0.02 0.02 0.02 0.01 0.00 0.00 0.00 0.00 0.00 0.00 0.00 0.00 0.00 0.00 0.00 0.00 0.00 0.00 0.00 0.00 0.00 0.00 0.00 0.00 0.00 0.00 0.00 0.00 0.00 0.00 0.00 0.00 0.00 0.00
0.00 0.00 0.00 0.00 0.00 0.00 0.00 0.00 0.00 0.02 0.03 0.02 0.00 0.00 0.00 0.00 0.00 0.00 0.00 0.00 0.00 0.00 0.00 0.00 0.00 0.00 0.00 0.00 0.00 0.00 0.00 0.00 0.00 0.00 0.00 0.00 0.00 0.00 0.00 0.00 0.00 0.00 0.00
0.00 0.00 0.00 0.00 0.00 0.00 0.00 0.00 0.01 0.05 0.06 0.01 0.00 0.00 0.00 0.00 0.00 0.00 0.00 0.00 0.00 0.00 0.00 0.00 0.00 0.00 0.00 0.00 0.00 0.00 0.00 0.00 0.00 0.00 0.00 0.00 0.00 0.00 0.00 0.00 0.00 0.00 0.00
MSLP
1021.77 1021.36 1021.02 1020.68 1020.27 1020.08 1019.66 1019.43 1019.10 1018.66 1018.09 1017.71 1017.47 1016.89 1014.49 1015.73 1014.05 1014.71 1014.82 1011.79 1011.46 1013.02 1013.39 1014.98 1016.39 1017.47 1018.29 1019.26 1020.25 1021.47 1022.53 1024.65 1025.32 1026.17 1028.62 1029.78 1030.54 1030.70 1030.89 1031.00 1030.98 1031.25 1031.60
1021.20 1020.79 1020.43 1020.14 1019.90 1019.66 1019.30 1018.93 1018.74 1018.47 1018.26 1017.99 1017.20 1016.74 1017.18 1016.16 1013.81 1014.06 1012.96 1014.75 1011.36 1012.21 1012.74 1014.38 1015.59 1016.92 1018.24 1019.38 1020.10 1021.30 1022.78 1024.04 1024.55 1025.49 1027.27 1029.40 1030.87 1031.36 1031.88 1031.83 1031.73 1031.72 1031.91
1020.98 1020.36 1020.00 1019.75 1019.49 1019.22 1018.86 1018.36 1018.34 1018.07 1017.81 1017.88 1018.21 1017.69 1016.42 1014.89 1014.99 1014.97 1014.27 1013.97 1012.90 1010.98 1011.96 1013.90 1014.82 1016.31 1017.61 1018.84 1019.88 1020.73 1021.65 1023.07 1024.43 1025.19 1025.30 1027.48 1028.75 1030.64 1032.16 1032.16 1032.06 1031.30 1032.18
1020.72 1020.52 1020.03 1019.37 1019.10 1018.81 1018.60 1018.03 1017.68 1017.32 1016.94 1016.60 1016.22 1015.82 1015.89 1014.17 1013.39 1013.99 1013.94 1013.53 1013.17 1010.64 1011.70 1013.42 1014.56 1015.80 1017.06 1018.44 1019.45 1020.20 1020.93 1022.06 1023.37 1024.70 1024.98 1025.60 1026.12 1027.90 1031.06 1032.02 1032.18 1031.86 1032.24
1020.46 1019.95 1019.54 1019.10 1018.67 1018.30 1018.02 1017.54 1017.05 1016.53 1016.26 1015.82 1015.53 1015.10 1014.06 1014.62 1014.60 1013.36 1013.52 1012.90 1012.36 1010.63 1011.22 1012.78 1014.17 1015.63 1016.57 1018.04 1018.98 1019.99 1020.86 1021.69 1022.46 1023.76 1025.07 1025.87 1026.43 1027.49 1028.35 1030.33 1031.72 1032.28 1032.69
1019.93 1019.72 1019.14 1018.47 1017.90 1017.51 1017.16 1016.77 1016.28 1015.72 1015.41 1015.10 1015.01 1014.84 1015.60 1014.93 1013.72 1012.85 1013.66 1012.77 1011.73 1010.64 1011.10 1012.48 1013.70 1014.96 1016.16 1017.37 1018.84 1019.32 1020.38 1021.40 1022.32 1023.44 1024.43 1024.98 1025.61 1026.62 1027.14 1028.29 1030.27 1031.23 1032.55
1019.38 1018.80 1018.17 1017.57 1017.06 1016.50 1016.21 1015.73 1015.24 1014.70 1014.41 1014.15 1014.10 1013.92 1013.05 1013.06 1012.94 1012.71 1013.29 1013.15 1011.92 1011.24 1010.69 1011.88 1013.34 1014.66 1015.96 1017.00 1018.47 1019.25 1019.93 1020.79 1021.68 1022.94 1023.89 1024.72 1025.14 1026.26 1026.70 1027.46 1029.16 1030.30 1032.16
1018.82 1018.32 1017.61 1016.72 1016.11 1015.51 1015.03 1014.59 1014.07 1013.68 1013.61 1013.22 1013.06 1013.50 1013.82 1013.52 1012.17 1011.81 1012.39 1011.85 1012.23 1011.67 1010.25 1011.32 1012.59 1013.90 1015.61 1016.69 1018.07 1019.09 1019.74 1020.46 1021.54 1022.69 1023.55 1024.37 1025.37 1026.19 1026.23 1026.90 1027.94 1029.91 1031.18
1018.46 1017.52 1016.88 1016.21 1015.33 1014.56 1014.06 1013.50 1012.91 1012.55 1012.43 1012.07 1011.77 1011.80 1011.51 1011.40 1011.20 1011.61 1011.77 1012.07 1012.06 1011.42 1010.04 1010.59 1011.78 1013.19 1014.98 1016.20 1017.64 1018.80 1019.63 1020.23 1021.43 1022.58 1023.41 1024.00 1025.10 1025.79 1026.18 1026.89 1027.52 1027.52 1029.26
1017.95 1016.94 1016.08 1015.19 1014.40 1013.82 1012.98 1012.22 1011.65 1011.13 1011.23 1010.85 1010.71 1010.66 1011.02 1011.35 1010.99 1010.98 1010.99 1011.12 1011.12 1010.84 1010.25 1009.98 1011.30 1012.67 1014.25 1015.65 1017.02 1018.41 1019.54 1020.10 1021.26 1022.41 1023.12 1023.82 1024.77 1025.58 1026.27 1026.74 1027.22 1027.51 1027.82
1017.38 1016.19 1015.01 1013.94 1013.22 1012.34 1011.56 1010.94 1010.41 1009.78 1009.70 1009.66 1009.46 1009.39 1009.56 1010.14 1010.20 1009.98 1010.67 1010.81 1010.42 1010.49 1010.28 1009.98 1010.78 1012.44 1013.80 1015.28 1016.47 1017.74 1019.07 1019.93 1020.90 1022.01 1022.72 1023.52 1024.39 1025.21 1025.97 1026.55 1027.22 1027.79 1027.99
1016.98 1015.48 1013.93 1012.68 1011.57 1010.84 1010.19 1009.59 1008.99 1008.35 1008.09 1008.17 1008.19 1008.35 1008.72 1008.85 1008.41 1009.47 1009.37 1010.31 1010.05 1010.23 1010.13 1010.18 1010.34 1012.11 1013.08 1014.78 1015.65 1016.81 1018.35 1019.29 1020.40 1021.55 1022.33 1023.16 1024.08 1024.91 1025.61 1026.35 1027.08 1027.61 1028.22
1016.11 1014.69 1013.39 1011.90 1010.41 1009.49 1008.81 1008.25 1007.78 1006.98 1006.66 1006.52 1006.76 1006.82 1007.36 1007.32 1007.36 1007.88 1008.44 1009.45 1009.89 1009.67 1009.75 1010.17 1010.07 1011.19 1012.80 1014.39 1015.18 1016.15 1017.65 1018.84 1019.94 1020.94 1021.62 1022.62 1023.57 1024.46 1025.30 1026.06 1026.82 1027.54 1028.30
1015.25 1013.76 1012.44 1011.04 1009.58 1008.36 1007.49 1006.84 1006.39 1005.85 1005.42 1005.05 1005.16 1005.36 1005.88 1006.30 1005.95 1006.77 1007.49 1007.48 1008.87 1008.50 1009.18 1010.08 1009.80 1010.70 1012.34 1013.76 1014.54 1015.88 1017.23 1018.45 1019.52 1020.53 1021.05 1021.97 1022.83 1023.72 1024.74 1025.69 1026.50 1027.36 1028.11
1014.08 1012.77 1011.09 1009.62 1008.31 1007.13 1006.07 1005.29 1004.84 1004.46 1004.05 1003.83 1003.81 1004.10 1005.07 1005.69 1005.72 1006.05 1005.86 1006.54 1008.02 1007.82 1008.63 1009.48 1009.90 1010.64 1011.81 1012.73 1014.07 1015.46 1016.79 1017.87 1018.97 1020.21 1020.95 1021.65 1022.20 1023.07 1023.90 1024.95 1026.11 1026.98 1027.72
1013.01 1011.38 1009.76 1008.14 1006.70 1005.62 1004.73 1003.95 1003.44 1003.07 1002.52 1002.61 1002.43 1003.31 1004.10 1004.51 1004.63 1004.72 1004.99 1006.50 1007.10 1006.97 1007.85 1009.35 1009.82 1010.32 1011.30 1012.32 1013.67 1015.02 1016.21 1017.36 1018.28 1019.49 1020.73 1021.63 1022.56 1023.19 1023.93 1024.65 1025.46 1026.12 1026.93
1012.31 1010.34 1008.38 1006.61 1005.02 1003.80 1003.04 1002.25 1001.94 1001.73 1001.05 1001.10 1001.22 1001.74 1002.12 1003.00 1003.61 1004.06 1004.09 1005.73 1006.11 1006.62 1007.74 1008.74 1009.94 1010.27 1011.09 1012.08 1013.53 1014.76 1015.75 1016.82 1017.86 1019.00 1020.25 1021.25 1022.14 1023.04 1024.03 1025.06 1025.81 1026.54 1027.14
1011.55 1009.46 1007.37 1005.14 1003.45 1002.12 1001.22 1000.63 1000.43 1000.21 999.52 999.53 1000.02 1000.32 1001.19 1001.57 1002.34 1002.46 1003.44 1003.92 1005.17 1005.98 1006.94 1008.58 1009.50 1010.11 1011.20 1012.21 1013.20 1014.42 1015.46 1016.58 1017.54 1018.51 1019.54 1020.40 1021.37 1022.41 1023.52 1024.78 1025.84 1026.63 1027.35
1011.63 1009.41 1007.10 1004.83 1002.50 1000.70 999.48 998.93 998.87 998.59 998.20 998.39 999.09 999.67 1000.52 1000.57 1000.98 1001.46 1002.64 1004.02 1005.01 1006.02 1007.07 1008.05 1008.71 1010.04 1011.21 1012.18 1013.20 1014.13 1015.37 1016.39 1017.36 1018.50 1019.31 1020.07 1020.89 1021.94 1022.89 1024.10 1025.34 1026.50 1027.62
1011.09 1008.22 1006.21 1004.03 1001.88 999.80 998.07 997.72 997.29 996.83 997.21 997.56 998.19 999.27 998.98 999.37 999.47 1000.88 1002.08 1003.73 1004.81 1005.92 1007.02 1008.14 1009.04 1009.66 1010.74 1011.60 1013.02 1013.77 1014.92 1016.01 1017.22 1018.46 1019.25 1020.05 1020.50 1021.42 1022.32 1023.30 1024.58 1025.97 1027.19
1009.13 1007.72 1005.97 1003.80 1001.83 999.60 997.38 996.61 996.66 996.51 996.15 997.07 998.05 997.95 998.09 998.13 999.22 1001.03 1002.63 1003.80 1004.92 1006.02 1007.23 1008.19 1009.23 1009.91 1010.82 1011.40 1012.86 1013.59 1014.32 1015.13 1016.62 1017.74 1018.87 1019.84 1020.42 1021.44 1022.04 1022.48 1023.67 1024.79 1026.65
1008.43 1005.34 1004.54 1004.13 1002.43 1000.15 998.17 997.14 996.53 996.38 997.18 998.06 997.29 997.51 997.44 998.52 1000.37 1001.57 1002.90 1003.96 1005.21 1006.39 1007.51 1008.45 1009.53 1010.24 1011.10 1011.87 1012.51 1013.47 1013.84 1014.69 1015.74 1016.93 1017.94 1018.96 1019.94 1021.06 1021.99 1022.80 1023.90 1025.14 1026.79
1011.39 1008.34 1007.18 1005.60 1003.62 1002.15 1000.89 999.92 999.28 997.98 996.64 996.54 996.43 997.13 998.12 999.58 1001.14 1002.04 1002.66 1004.01 1005.34 1006.32 1007.00 1007.94 1009.24 1010.45 1011.36 1012.26 1013.10 1013.68 1014.58 1015.11 1015.79 1016.73 1017.42 1018.48 1020.05 1021.14 1022.20 1023.04 1024.19 1025.28 1026.71
1012.15 1009.07 1007.21 1004.09 1003.51 1002.46 1001.73 999.86 997.95 997.16 996.76 996.78 997.48 998.36 999.39 1000.81 1001.95 1002.55 1003.37 1004.38 1005.33 1006.15 1007.42 1007.81 1009.12 1010.21 1010.94 1011.80 1012.98 1013.92 1014.90 1015.88 1016.62 1017.62 1018.40 1019.44 1020.86 1021.88 1022.73 1023.99 1024.88 1025.65 1026.29
1012.47 1011.19 1008.80 1007.17 1004.19 1003.07 1002.23 999.91 999.46 997.82 997.94 998.60 999.83 1000.21 1001.10 1001.67 1002.34 1003.09 1003.70 1005.13 1005.91 1005.46 1006.40 1007.56 1008.64 1009.60 1010.77 1011.33 1011.98 1013.13 1014.38 1015.42 1016.43 1017.81 1019.06 1019.79 1021.46 1022.64 1023.53 1024.79 1025.51 1026.20 1026.72
1015.39 1012.29 1010.68 1008.94 1007.62 1005.06 1003.28 1002.29 1001.36 1000.41 999.95 1000.43 1001.31 1002.01 1002.58 1003.02 1003.43 1004.17 1005.81 1006.35 1006.18 1006.05 1006.74 1007.18 1007.97 1009.19 1009.85 1011.04 1011.92 1013.18 1014.30 1015.17 1016.36 1017.65 1018.98 1019.87 1021.10 1022.36 1023.59 1024.84 1025.82 1026.68 1027.29
Thickness
5345 5351 5357 5360 5367 5377 5392 5409 5429 5447 5469 5486 5505 5523 5558 5562 5585 5592 5592 5634 5642 5640 5646 5642 5640 5640 5642 5642 5642 5639 5636 5624 5626 5624 5608 5605 5603 5605 5606 5607 5608 5608 5607
5341 5345 5349 5355 5359 5367 5378 5395 5412 5431 5449 5466 5491 5512 5522 5544 5576 5586 5598 5591 5635 5638 5644 5639 5641 5639 5635 5634 5638 5636 5631 5626 5628 5627 5616 5602 5597 5596 5595 5598 5600 5601 5602
5338 5340 5342 5346 5350 5357 5365 5380 5396 5415 5433 5450 5465 5482 5515 5543 5557 5565 5577 5585 5608 5637 5641 5635 5641 5638 5636 5635 5635 5637 5636 5630 5627 5624 5630 5613 5612 5597 5588 5592 5595 5600 5597
5332 5329 5332 5337 5340 5346 5353 5365 5382 5402 5420 5441 5464 5484 5501 5534 5558 5564 5575 5582 5595 5633 5632 5628 5634 5635 5634 5631 5632 5635 5637 5635 5627 5624 5628 5625 5625 5620 5592 5588 5590 5593 5592
5324 5325 5325 5328 5331 5336 5343 5352 5368 5387 5405 5430 5453 5475 5503 5516 5532 5557 5570 5581 5594 5624 5628 5626 5628 5626 5631 5627 5629 5630 5632 5631 5632 5625 5618 5617 5621 5616 5614 5599 5589 5587 5586
5319 5315 5316 5320 5323 5327 5334 5343 5355 5374 5394 5419 5441 5463 5476 5497 5529 5549 5556 5575 5594 5621 5622 5622 5627 5625 5626 5628 5624 5630 5629 5629 5627 5623 5620 5620 5619 5615 5618 5613 5598 5594 5584
5316 5312 5311 5313 5314 5318 5325 5337 5347 5364 5384 5409 5432 5453 5481 5501 5520 5538 5547 5561 5581 5604 5622 5621 5622 5618 5619 5624 5620 5623 5627 5628 5628 5622 5620 5620 5622 5616 5617 5616 5604 5598 5582
5307 5302 5301 5304 5304 5309 5316 5329 5344 5357 5374 5399 5425 5439 5460 5484 5515 5538 5543 5562 5571 5589 5618 5622 5623 5622 5615 5619 5617 5617 5622 5625 5623 5619 5619 5617 5614 5612 5616 5614 5608 5593 5586
5294 5292 5291 5292 5294 5299 5307 5318 5339 5352 5369 5395 5419 5438 5466 5492 5516 5527 5537 5546 5559 5581 5608 5621 5625 5621 5614 5616 5615 5615 5617 5621 5618 5615 5614 5616 5612 5611 5612 5609 5607 5610 5597
5283 5283 5283 5284 5285 5286 5298 5310 5332 5350 5364 5390 5411 5432 5455 5478 5500 5520 5534 5547 5565 5582 5602 5619 5622 5620 5617 5617 5615 5611 5609 5614 5614 5612 5613 5613 5610 5608 5605 5605 5604 5605 5607
5271 5274 5278 5280 5280 5284 5293 5306 5322 5346 5364 5386 5405 5427 5453 5475 5496 5520 5528 5543 5561 5576 5597 5612 5619 5614 5615 5614 5614 5611 5608 5611 5612 5610 5612 5611 5608 5605 5603 5601 5599 5597 5598
5259 5266 5273 5276 5283 5285 5291 5303 5315 5338 5362 5382 5401 5423 5447 5475 5503 5512 5530 5539 5557 5571 5591 5601 5617 5611 5616 5611 5616 5616 5611 5611 5612 5610 5609 5608 5605 5603 5601 5597 5594 5593 5590
5255 5261 5263 5270 5278 5281 5286 5297 5310 5332 5354 5379 5398 5425 5448 5480 5506 5522 5533 5541 5551 5571 5585 5595 5611 5614 5610 5607 5615 5615 5610 5609 5609 5607 5609 5606 5603 5601 5597 5594 5590 5587 5583
5255 5257 5260 5261 5268 5274 5279 5291 5305 5328 5353 5380 5402 5430 5461 5487 5512 5528 5539 5554 5555 5574 5583 5591 5609 5613 5609 5607 5613 5611 5607 5604 5604 5604 5607 5605 5603 5600 5595 5590 5587 5583 5579
5255 5253 5254 5256 5259 5268 5275 5287 5302 5327 5359 5384 5412 5444 5468 5489 5511 5529 5547 5557 5559 5577 5585 5586 5604 5606 5606 5611 5610 5607 5603 5603 5603 5600 5601 5602 5601 5598 5594 5589 5584 5580 5576
5251 5249 5250 5254 5259 5266 5273 5288 5304 5331 5368 5391 5425 5449 5473 5498 5521 5537 5551 5553 5562 5581 5588 5587 5596 5602 5605 5608 5606 5603 5603 5603 5604 5601 5597 5595 5593 5591 5588 5587 5583 5580 5575
5245 5247 5252 5256 5261 5272 5279 5294 5312 5336 5375 5403 5437 5468 5495 5516 5527 5541 5554 5557 5568 5578 5584 5586 5587 5596 5602 5604 5600 5598 5600 5602 5601 5599 5593 5590 5589 5585 5580 5577 5574 5570 5567
5247 5249 5252 5264 5272 5282 5293 5307 5326 5351 5392 5423 5454 5485 5505 5528 5537 5554 5562 5572 5574 5580 5585 5582 5585 5589 5594 5596 5597 5595 5597 5597 5596 5595 5592 5590 5588 5583 5578 5571 5565 5562 5557
5251 5250 5256 5266 5282 5300 5317 5332 5347 5370 5407 5440 5470 5496 5515 5537 5548 5564 5570 5571 5572 5576 5580 5582 5583 5584 5587 5589 5589 5591 5590 5590 5591 5587 5586 5586 5583 5580 5575 5569 5562 5556 5548
5267 5274 5272 5281 5298 5316 5340 5354 5373 5401 5425 5456 5486 5507 5534 5548 5567 5572 5575 5572 5572 5574 5574 5576 5578 5585 5584 5589 5584 5588 5588 5587 5583 5580 5579 5578 5580 5575 5572 5567 5560 5551 5544
5306 5299 5289 5300 5311 5332 5364 5390 5403 5423 5457 5478 5498 5526 5544 5566 5574 5571 5569 5568 5571 5569 5569 5569 5571 5576 5578 5577 5577 5581 5587 5588 5580 5578 5574 5572 5573 5568 5566 5566 5559 5552 5538
5333 5344 5335 5327 5335 5356 5383 5413 5429 5452 5466 5481 5515 5536 5556 5565 5559 5562 5561 5564 5565 5562 5560 5562 5562 5568 5568 5573 5575 5577 5583 5582 5579 5577 5574 5573 5568 5562 5557 5554 5546 5538 5528
5327 5346 5346 5354 5367 5380 5395 5410 5424 5449 5484 5509 5533 5546 5555 5555 5551 5555 5563 5561 5559 5561 5564 5566 5562 5559 5560 5561 5563 5567 5567 5570 5571 5570 5570 5567 5558 5551 5544 5541 5534 5528 5520
5336 5361 5367 5393 5391 5403 5414 5437 5461 5483 5507 5526 5534 5540 5541 5539 5542 5548 5553 5556 5555 5559 5558 5562 5558 5556 5557 5557 5555 5554 5556 5554 5555 5553 5553 5548 5539 5534 5531 5524 5522 5518 5513
5350 5357 5377 5393 5412 5421 5429 5459 5472 5501 5509 5516 5514 5529 5529 5535 5536 5542 5549 5546 5552 5564 5563 5560 5557 5555 5552 5557 5558 5556 5553 5552 5549 5543 5539 5537 5526 5520 5517 5511 5508 5504 5501
5341 5364 5375 5391 5403 5427 5447 5458 5472 5490 5507 5511 5512 5515 5521 5527 5533 5537 5531 5536 5547 5553 5555 5558 5558 5554 5556 5551 5551 5549 5547 5545 5541 5535 5530 5528 5522 5516 5509 5502 5496 5491 5487